User: anonymous   Login
Location: Ertinghausen
(51.6624°N, 9.7874°E)
Time: 22:31:21
(UTC+00:00)
Language:

Meteor 1-27 Rocket - Orbit

View from above orbital plane
View from above orbital plane
View from above satellite
View from above satellite

Ground track
Ground track

The orbit data is extracted from the following two-line orbital elements,

1  9904U 77024B   25322.29954413  .00000115  00000-0  60879-4 0  9994
2  9904  81.2638  36.9494 0054836 304.1268  55.4706 14.07279016495122
Epoch (UTC): 18 November 2025 07:11:20
Eccentricity: 0.0054836
inclination: 81.2638°
perigee height: 829 km
apogee height: 908 km
right ascension of ascending node: 36.9494°
argument of perigee: 304.1268°
revolutions per day: 14.07279016
mean anomaly at epoch: 55.4706°
orbit number at epoch: 49512

The dashed part of the orbit path shows where the satellite is in the earth's shadow,  

DLR